Weather History for Hurghada, Egypt

Change the Weather History Date:

Tuesday, February 25, 2014

  Actual Average Record
Temperature  
Mean Temperature 68 °F -  
Max Temperature 76 °F 74 °F 88 °F (2013)
Min Temperature 59 °F 57 °F 51 °F (2003)
Cooling Degree Days 2    
Growing Degree Days 18 (Base 50)    
Moisture  
Dew Point 45 °F    
Average Humidity 45    
Maximum Humidity 77    
Minimum Humidity 22    
Precipitation  
Precipitation 0.00 in - - ()
Sea Level Pressure  
Sea Level Pressure 30.00 in    
Wind  
Wind Speed 19 mph ()    
Max Wind Speed 29 mph    
Max Gust Speed -    
Visibility 6.0 miles    
Events      
Averages and records for this station are not official NWS values.
T = Trace of Precipitation, MM = Missing Value Source: Averaged Metar Reports

Daily Weather History Graph

Daily Weather History Graph

Search for Another Location

Airport:

Trip Planner

Search our weather history database for the weather conditions in past years. The results will help you decide how hot, cold, wet, or windy it might be!

Date:

Astronomy

Feb. 25, 2014 Rise Set
Actual Time 6:13 AM EET 5:43 PM EET
Civil Twilight 5:49 AM EET 6:06 PM EET
Nautical Twilight 5:22 AM EET 6:33 PM EET
Astronomical Twilight 4:55 AM EET 7:00 PM EET
Moon 2:33 AM EET (2/25) 1:40 PM EET (2/25)
Length of Visible Light 12h 17m
Length of Day
11h 30m
Waning Crescent, 21% of the Moon is Illuminated
Feb 25
Waning Crescent
Mar 1
New
Mar 8
First Quarter
Mar 16
Full
Mar 24
Last Quarter

Hourly Weather History & Observations

Time (EET) Temp. Dew Point Humidity Pressure Visibility Wind Dir Wind Speed Gust Speed Precip Events Conditions
12:00 AM 64.4 °F 50.0 °F 59% 29.95 in - NW 20.7 mph - N/A   Clear
1:00 AM 64.4 °F 50.0 °F 59% 29.92 in - NW 17.3 mph - N/A   Clear
2:00 AM 63 °F 50 °F 53% 29.94 in 6 mi NW 23.0 mph - -  
2:00 AM 62.6 °F 50.0 °F 63% 29.92 in - NW 23.0 mph - N/A   Clear
3:00 AM 62.6 °F 50.0 °F 63% 29.92 in - NW 16.1 mph - N/A   Clear
4:00 AM 60.8 °F 48.2 °F 63% 29.95 in - NW 13.8 mph - N/A   Clear
5:00 AM 62 °F 53 °F 63% 29.97 in 6 mi WNW 20.7 mph - -  
5:00 AM 60.8 °F 53.6 °F 77% 29.95 in - WNW 20.7 mph - N/A   Clear
6:00 AM 60.8 °F 53.6 °F 77% 29.98 in - WNW 19.6 mph - N/A   Clear
7:00 AM 60.8 °F 53.6 °F 77% 30.01 in - WNW 19.6 mph - N/A   Clear
8:00 AM 63 °F 54 °F 64% 30.03 in 6 mi WNW 20.7 mph - -  
8:00 AM 64.4 °F 53.6 °F 68% 30.01 in - WNW 20.7 mph - N/A   Clear
9:00 AM 68.0 °F 50.0 °F 52% 30.04 in - NW 23.0 mph - N/A   Clear
10:00 AM 71.6 °F 42.8 °F 35% 30.04 in - NNW 25.3 mph - N/A   Clear
11:00 AM 73 °F 44 °F 25% 30.04 in 6 mi North 25.3 mph - -  
11:00 AM 73.4 °F 44.6 °F 36% 30.04 in - North 25.3 mph - N/A   Clear
12:00 PM 75.2 °F 42.8 °F 31% 30.01 in - North 28.8 mph - N/A   Clear
1:00 PM 75.2 °F 42.8 °F 31% 29.98 in - North 23.0 mph - N/A   Clear
2:00 PM 75 °F 44 °F 22% 29.99 in 6 mi North 28.8 mph - -  
2:00 PM 75.2 °F 42.8 °F 31% 29.98 in - North 28.8 mph - N/A   Clear
3:00 PM 75.2 °F 39.2 °F 27% 29.98 in - North 28.8 mph - N/A   Clear
4:00 PM 75.2 °F 39.2 °F 27% 29.98 in - North 27.6 mph - N/A   Clear
5:00 PM 73 °F 44 °F 24% 30.00 in 6 mi North 25.3 mph - -  
5:00 PM 73.4 °F 42.8 °F 33% 29.98 in - North 25.3 mph - N/A   Clear
6:00 PM 69.8 °F 44.6 °F 40% 30.01 in - North 19.6 mph - N/A   Clear
7:00 PM 68.0 °F 41.0 °F 37% 30.04 in - NW 16.1 mph - N/A   Clear
8:00 PM 65 °F 38 °F 26% 30.05 in 6 mi NNW 13.8 mph - -  
8:00 PM 66.2 °F 39.2 °F 37% 30.04 in - NNW 13.8 mph - N/A   Clear
9:00 PM 62.6 °F 37.4 °F 39% 30.06 in - NW 9.2 mph - N/A   Clear
10:00 PM 62.6 °F 37.4 °F 39% 30.06 in - NW 13.8 mph - N/A   Clear
11:00 PM 62 °F 37 °F 28% 30.09 in 6 mi NW 13.8 mph - -  
11:00 PM 62.6 °F 37.4 °F 39% 30.06 in - NW 13.8 mph - N/A   Clear